Weather History for Dayton, OH

Change the Weather History Date:

Saturday, January 25, 2014

  Actual Average Record
Temperature  
Mean Temperature 20 °F 28 °F  
Max Temperature 31 °F 35 °F 71 °F (1950)
Min Temperature 9 °F 20 °F -12 °F (1897)
Degree Days  
Heating Degree Days 45 37  
Month to date heating degree days 1055 942  
Since 1 July heating degree days 3174 3101  
Cooling Degree Days 0 0  
Month to date cooling degree days 0 0  
Year to date cooling degree days 0 0  
Moisture  
Dew Point 15 °F    
Average Humidity 74    
Maximum Humidity 88    
Minimum Humidity 59    
Precipitation  
Precipitation 0.08 in 0.08 in 0.95 in (1978)
Month to date precipitation 2.68 2.23  
Year to date precipitation 2.68 2.23  
Snow  
Snow 2.40 in 0.30 in 4.90 in (1915)
Month to date snowfall 19.7 6.4  
Since 1 July snowfall 34.3 11.9  
Snow Depth 3.00 in    
Sea Level Pressure  
Sea Level Pressure 29.60 in    
Wind  
Wind Speed 20 mph (West)    
Max Wind Speed 35 mph    
Max Gust Speed 44 mph    
Visibility 4 miles    
Events Snow    
T = Trace of Precipitation, MM = Missing Value Source: NWS Daily Summary

Daily Weather History Graph

Daily Weather History Graph

Search for Another Location

Airport:

Trip Planner

Search our weather history database for the weather conditions in past years. The results will help you decide how hot, cold, wet, or windy it might be!

Date:

Astronomy

Jan. 25, 2014 Rise Set
Actual Time 7:50 AM EST 5:47 PM EST
Civil Twilight 7:21 AM EST 6:16 PM EST
Nautical Twilight 6:49 AM EST 6:49 PM EST
Astronomical Twilight 6:17 AM EST 7:21 PM EST
Moon 2:22 AM EST (1/25) 12:47 PM EST (1/25)
Length of Visible Light 10h 55m
Length of Day
9h 56m
Waning Crescent, 34% of the Moon is Illuminated
Jan 25
Waning Crescent
Jan 30
New
Feb 6
First Quarter
Feb 14
Full
Feb 22
Last Quarter

Hourly Weather History & Observations

Time (EST) Temp. Windchill Dew Point Humidity Pressure Visibility Wind Dir Wind Speed Gust Speed Precip Events Conditions
12:25 AM 19.4 °F 2.8 °F 12.2 °F 74% 29.76 in 1.5 mi SW 21.9 mph 35.7 mph 0.00 in Snow Light Snow
12:56 AM 19.0 °F 2.4 °F 14.0 °F 81% 29.78 in 1.8 mi SW 21.9 mph 28.8 mph 0.00 in Snow Light Snow
1:56 AM 19.0 °F 1.6 °F 15.1 °F 85% 29.74 in 1.2 mi SSW 24.2 mph 31.1 mph 0.02 in Snow Light Snow
2:56 AM 19.0 °F 2.4 °F 15.1 °F 85% 29.68 in 1.2 mi SSW 21.9 mph 29.9 mph 0.00 in Snow Light Snow
3:56 AM 19.9 °F 4.3 °F 15.1 °F 81% 29.65 in 1.8 mi SSW 19.6 mph 29.9 mph 0.01 in Snow Light Snow
4:45 AM 19.4 °F 3.2 °F 15.8 °F 86% 29.57 in 2.0 mi SSW 20.7 mph 28.8 mph 0.01 in Snow Light Snow
4:56 AM 19.9 °F 3.2 °F 16.0 °F 85% 29.60 in 2.0 mi SSW 23.0 mph 32.2 mph 0.01 in Snow Light Snow
5:07 AM 19.4 °F 2.8 °F 15.8 °F 86% 29.55 in 3.0 mi SSW 21.9 mph 29.9 mph 0.00 in Snow Light Snow
5:43 AM 19.4 °F 3.6 °F 15.8 °F 86% 29.55 in 4.0 mi SW 19.6 mph 33.4 mph 0.00 in Snow Light Snow
5:56 AM 21.0 °F 5.4 °F 16.0 °F 81% 29.59 in 4.0 mi SSW 20.7 mph 28.8 mph 0.00 in Snow Light Snow
6:24 AM 21.2 °F 4.5 °F 17.6 °F 86% 29.53 in 2.5 mi SSW 24.2 mph 29.9 mph 0.01 in Snow Light Snow
6:48 AM 21.2 °F 4.9 °F 17.6 °F 86% 29.52 in 5.0 mi SSW 23.0 mph 28.8 mph 0.01 in Snow Light Snow
6:56 AM 21.0 °F 5.0 °F 17.1 °F 85% 29.56 in 5.0 mi SSW 21.9 mph 27.6 mph 0.01 in Snow Light Snow
7:56 AM 21.9 °F 5.8 °F 18.0 °F 85% 29.54 in 4.0 mi SSW 23.0 mph 32.2 mph 0.00 in Snow Light Snow
8:23 AM 21.2 °F 5.6 °F 17.6 °F 86% 29.49 in 1.8 mi SW 20.7 mph 33.4 mph 0.00 in Snow Light Snow
8:35 AM 23.0 °F 6.9 °F 17.6 °F 80% 29.49 in 2.0 mi SW 24.2 mph 33.4 mph 0.00 in Snow Light Snow
8:54 AM 23.0 °F 8.0 °F 19.4 °F 86% 29.50 in 1.0 mi SW 20.7 mph 31.1 mph 0.00 in Snow Light Snow
8:56 AM 23.0 °F 7.6 °F 19.0 °F 85% 29.54 in 1.0 mi SW 21.9 mph 31.1 mph 0.00 in Snow Light Snow
9:05 AM 23.0 °F 8.7 °F 19.4 °F 86% 29.50 in 3.0 mi SW 18.4 mph 29.9 mph 0.00 in Snow Light Snow
9:29 AM 24.8 °F 9.6 °F 19.4 °F 80% 29.49 in 2.5 mi SW 23.0 mph - 0.01 in Snow Light Snow
9:56 AM 24.1 °F 9.4 °F 21.0 °F 88% 29.52 in 2.5 mi SW 20.7 mph - 0.01 in Snow Light Snow
10:08 AM 24.8 °F 11.1 °F 21.2 °F 86% 29.48 in 1.2 mi SW 18.4 mph 27.6 mph 0.00 in Snow Light Snow
10:33 AM 24.8 °F 10.0 °F 21.2 °F 86% 29.48 in 2.0 mi SW 21.9 mph 28.8 mph 0.00 in Snow Light Snow
10:44 AM 26.6 °F 12.4 °F 21.2 °F 80% 29.48 in 1.5 mi WSW 21.9 mph 28.8 mph 0.00 in Snow Light Snow
10:56 AM 26.1 °F 11.6 °F 23.0 °F 88% 29.52 in 1.0 mi WSW 21.9 mph 32.2 mph 0.00 in Snow Light Snow
11:34 AM 28.4 °F 15.4 °F 24.8 °F 86% 29.47 in 1.0 mi WSW 19.6 mph - 0.01 in Snow Light Snow
11:40 AM 28.4 °F 15.1 °F 24.8 °F 86% 29.47 in 0.8 mi WSW 20.7 mph 27.6 mph 0.01 in Snow Light Snow
11:56 AM 28.0 °F 15.3 °F 24.1 °F 85% 29.50 in 1.0 mi WSW 18.4 mph 26.5 mph 0.01 in Snow Light Snow
12:14 PM 30.2 °F 16.8 °F 24.8 °F 80% 29.46 in 3.0 mi West 23.0 mph - 0.00 in Snow Blowing Snow
12:45 PM 30.2 °F 15.7 °F 21.2 °F 69% 29.45 in 0.8 mi West 27.6 mph 42.6 mph 0.00 in Snow Blowing Snow
12:56 PM 30.9 °F 16.7 °F 21.0 °F 67% 29.49 in 1.0 mi West 27.6 mph 39.1 mph 0.00 in Snow Blowing Snow
1:16 PM 30.2 °F 15.4 °F 19.4 °F 64% 29.47 in 1.8 mi West 28.8 mph 38.0 mph N/A Snow Blowing Snow
1:26 PM 30.2 °F 16.2 °F 19.4 °F 64% 29.46 in 2.5 mi West 25.3 mph 36.8 mph N/A Snow Blowing Snow
1:34 PM 30.2 °F 17.1 °F 19.4 °F 64% 29.46 in 6.0 mi West 21.9 mph 31.1 mph N/A Snow Blowing Snow
1:47 PM 28.4 °F 13.0 °F 21.2 °F 74% 29.47 in 0.5 mi WNW 28.8 mph 41.4 mph N/A Snow Blowing Snow
1:56 PM 27.0 °F 11.6 °F 19.9 °F 75% 29.52 in 0.8 mi West 26.5 mph 36.8 mph N/A Snow Blowing Snow
2:06 PM 28.4 °F 14.1 °F 17.6 °F 64% 29.48 in 1.5 mi WNW 24.2 mph 39.1 mph N/A Snow Blowing Snow
2:20 PM 28.4 °F 13.5 °F 17.6 °F 64% 29.49 in 2.5 mi West 26.5 mph 35.7 mph N/A Snow Blowing Snow
2:30 PM 28.4 °F 13.8 °F 17.6 °F 64% 29.50 in 1.0 mi WNW 25.3 mph 43.7 mph 0.00 in Snow Blowing Snow
2:56 PM 24.1 °F 7.7 °F 17.1 °F 75% 29.57 in 1.0 mi WNW 26.5 mph 40.3 mph 0.00 in Snow Light Snow
3:18 PM 24.8 °F 9.6 °F 15.8 °F 69% 29.55 in 3.0 mi WNW 23.0 mph 34.5 mph 0.00 in Snow Light Snow
3:29 PM 23.0 °F 6.9 °F 17.6 °F 80% 29.56 in 1.8 mi NW 24.2 mph 31.1 mph 0.01 in Snow Light Snow
3:31 PM 21.2 °F 4.9 °F 15.8 °F 80% 29.57 in 0.5 mi NW 23.0 mph 31.1 mph 0.01 in Snow Snow
3:39 PM 21.2 °F 6.4 °F 17.6 °F 86% 29.58 in 0.2 mi WNW 18.4 mph 32.2 mph 0.01 in Snow Heavy Snow
3:51 PM 21.2 °F 7.3 °F 15.8 °F 80% 29.58 in 2.0 mi WNW 16.1 mph 25.3 mph 0.01 in Snow Light Snow
3:56 PM 21.9 °F 8.2 °F 16.0 °F 78% 29.63 in 5.0 mi WNW 16.1 mph - 0.01 in Snow Light Snow
4:19 PM 21.2 °F 4.9 °F 14.0 °F 74% 29.60 in 1.8 mi WNW 23.0 mph 28.8 mph 0.00 in Snow Light Snow
4:35 PM 21.2 °F 6.8 °F 14.0 °F 74% 29.61 in 3.0 mi WNW 17.3 mph 25.3 mph 0.00 in Snow Light Snow
4:53 PM 21.2 °F 5.2 °F 12.2 °F 68% 29.63 in 1.0 mi WNW 21.9 mph 27.6 mph 0.00 in Snow Light Snow
4:56 PM 19.9 °F 3.5 °F 12.9 °F 74% 29.68 in 1.8 mi WNW 21.9 mph 31.1 mph 0.00 in Snow Light Snow
5:24 PM 19.4 °F 4.5 °F 12.2 °F 74% 29.66 in 2.0 mi WNW 17.3 mph 27.6 mph 0.00 in Snow Light Snow
5:45 PM 19.4 °F 4.1 °F 10.4 °F 68% 29.69 in 6.0 mi West 18.4 mph 27.6 mph 0.00 in Snow Light Snow
5:50 PM 19.4 °F 3.6 °F 10.4 °F 68% 29.69 in 6.0 mi West 19.6 mph - 0.00 in   Mostly Cloudy
5:56 PM 19.0 °F 5.0 °F 10.0 °F 68% 29.74 in 10.0 mi West 15.0 mph - 0.00 in   Mostly Cloudy
6:08 PM 19.4 °F 4.1 °F 10.4 °F 68% 29.71 in 8.0 mi WNW 18.4 mph 23.0 mph N/A   Mostly Cloudy
6:56 PM 17.1 °F 3.0 °F 10.0 °F 74% 29.80 in 10.0 mi West 13.8 mph - N/A   Mostly Cloudy
7:16 PM 15.8 °F -1.9 °F 6.8 °F 68% 29.77 in 9.0 mi West 21.9 mph 25.3 mph 0.00 in   Mostly Cloudy
7:29 PM 15.8 °F 0.3 °F 5.0 °F 62% 29.78 in 10.0 mi West 16.1 mph - 0.00 in   Scattered Clouds
7:56 PM 15.1 °F -0.6 °F 3.9 °F 61% 29.84 in 10.0 mi West 16.1 mph 26.5 mph 0.00 in   Partly Cloudy
8:56 PM 12.9 °F -4.9 °F 1.9 °F 62% 29.87 in 10.0 mi West 19.6 mph 27.6 mph N/A   Clear
9:56 PM 10.9 °F -5.4 °F 1.0 °F 64% 29.89 in 10.0 mi West 15.0 mph 24.2 mph N/A   Clear
10:56 PM 10.0 °F -5.2 °F -0.0 °F 64% 29.91 in 10.0 mi West 12.7 mph - N/A   Clear
11:56 PM 9.0 °F -5.9 °F -0.9 °F 64% 29.90 in 10.0 mi WNW 11.5 mph - N/A   Clear